�������l�o���
Date,Time,MP-1(��Sv/h),MP-2(��Sv/h),MP-3(��Sv/h),MP-4(��Sv/h),MP-5(��Sv/h),MP-6(��Sv/h),MP-7(��Sv/h),����,����(m/s),���J
2022/01/19,00:00,0.159,0.145,0.228,0.222,0.224,0.125,0.080,�k��,5.0,��
2022/01/19,00:10,0.158,0.146,0.229,0.221,0.224,0.126,0.080,�k��,5.5,��
2022/01/19,00:20,0.159,0.146,0.228,0.222,0.224,0.126,0.080,���k��,3.5,��
2022/01/19,00:30,0.159,0.147,0.229,0.221,0.223,0.125,0.080,���k��,1.9,��
2022/01/19,00:40,0.159,0.147,0.228,0.222,0.223,0.126,0.080,�k�k��,0.8,��
2022/01/19,00:50,0.158,0.147,0.228,0.221,0.224,0.126,0.080,-,CALM,��
2022/01/19,01:00,0.159,0.146,0.228,0.220,0.224,0.125,0.080,���k��,0.8,��
2022/01/19,01:10,0.158,0.146,0.229,0.222,0.223,0.126,0.081,�k�k��,0.7,��
2022/01/19,01:20,0.159,0.146,0.227,0.221,0.224,0.125,0.081,�k�k��,1.3,��
2022/01/19,01:30,0.158,0.146,0.228,0.221,0.223,0.125,0.080,�k��,2.9,��
2022/01/19,01:40,0.159,0.147,0.228,0.221,0.224,0.126,0.080,�k��,4.8,��
2022/01/19,01:50,0.159,0.147,0.228,0.221,0.223,0.125,0.080,�k��,4.9,��
2022/01/19,02:00,0.159,0.146,0.228,0.221,0.223,0.125,0.080,�k��,7.4,��
2022/01/19,02:10,0.160,0.146,0.228,0.220,0.223,0.126,0.080,���k��,7.3,��
2022/01/19,02:20,0.159,0.146,0.228,0.220,0.222,0.126,0.080,���k��,5.5,��
2022/01/19,02:30,0.159,0.147,0.229,0.221,0.224,0.125,0.080,�k��,3.2,��
2022/01/19,02:40,0.159,0.146,0.229,0.221,0.222,0.126,0.080,�k�k��,4.1,��
2022/01/19,02:50,0.159,0.146,0.229,0.221,0.222,0.126,0.080,�k�k��,3.0,��
2022/01/19,03:00,0.159,0.147,0.228,0.221,0.224,0.125,0.080,�k,3.3,��
2022/01/19,03:10,0.158,0.145,0.229,0.220,0.224,0.125,0.080,�k��,3.3,��
2022/01/19,03:20,0.158,0.146,0.229,0.220,0.223,0.125,0.080,�k��,1.9,��
2022/01/19,03:30,0.158,0.146,0.228,0.220,0.223,0.125,0.080,�k,1.9,��
2022/01/19,03:40,0.159,0.146,0.227,0.220,0.224,0.125,0.079,�k�k��,2.5,��
2022/01/19,03:50,0.158,0.146,0.229,0.221,0.221,0.125,0.079,�k�k��,2.1,��
2022/01/19,04:00,0.157,0.145,0.227,0.221,0.223,0.125,0.079,�k�k��,2.1,��
2022/01/19,04:10,0.159,0.145,0.228,0.221,0.224,0.125,0.079,���k��,2.4,��
2022/01/19,04:20,0.159,0.145,0.229,0.220,0.222,0.125,0.080,���k��,4.4,��
2022/01/19,04:30,0.159,0.146,0.229,0.220,0.223,0.125,0.080,���k��,3.3,��
2022/01/19,04:40,0.158,0.146,0.228,0.219,0.223,0.125,0.080,�k��,2.7,��
2022/01/19,04:50,0.158,0.146,0.227,0.222,0.222,0.124,0.079,�k�k��,2.4,��
2022/01/19,05:00,0.159,0.146,0.228,0.221,0.224,0.124,0.079,���k��,4.4,��
2022/01/19,05:10,0.158,0.145,0.229,0.220,0.223,0.125,0.080,���k��,5.5,��
2022/01/19,05:20,0.157,0.147,0.227,0.220,0.223,0.125,0.079,���k��,5.2,��
2022/01/19,05:30,0.158,0.145,0.228,0.221,0.222,0.125,0.080,���k��,5.9,��
2022/01/19,05:40,0.159,0.146,0.228,0.219,0.222,0.125,0.080,�k��,4.9,��
2022/01/19,05:50,0.159,0.145,0.229,0.221,0.222,0.125,0.079,�k��,4.0,��
2022/01/19,06:00,0.159,0.145,0.229,0.220,0.222,0.125,0.080,�k��,4.3,��
2022/01/19,06:10,0.158,0.145,0.228,0.220,0.223,0.125,0.080,���k��,3.8,��
2022/01/19,06:20,0.159,0.146,0.228,0.221,0.222,0.124,0.079,���k��,5.5,��
2022/01/19,06:30,0.157,0.146,0.228,0.220,0.223,0.124,0.080,���k��,5.1,��
2022/01/19,06:40,0.158,0.146,0.227,0.221,0.223,0.125,0.079,���k��,5.7,��
2022/01/19,06:50,0.158,0.145,0.228,0.220,0.223,0.125,0.079,�k��,6.6,��
2022/01/19,07:00,0.158,0.146,0.228,0.219,0.222,0.125,0.079,���k��,7.0,��
2022/01/19,07:10,0.158,0.146,0.228,0.219,0.223,0.125,0.079,�k��,8.0,��
2022/01/19,07:20,0.158,0.145,0.228,0.219,0.222,0.125,0.079,�k��,8.7,��
2022/01/19,07:30,0.158,0.146,0.228,0.220,0.221,0.124,0.079,���k��,8.5,��
2022/01/19,07:40,0.158,0.145,0.227,0.219,0.223,0.124,0.079,���k��,7.7,��
2022/01/19,07:50,0.159,0.145,0.227,0.220,0.222,0.124,0.079,�k��,4.6,��
2022/01/19,08:00,0.158,0.145,0.227,0.220,0.222,0.125,0.079,�k��,5.5,��
2022/01/19,08:10,0.158,0.146,0.227,0.220,0.221,0.125,0.078,�k��,5.4,��
2022/01/19,08:20,0.157,0.146,0.228,0.219,0.222,0.124,0.079,�k��,4.0,��
2022/01/19,08:30,0.157,0.145,0.228,0.219,0.223,0.123,0.079,�k��,4.0,��
2022/01/19,08:40,0.158,0.145,0.227,0.218,0.221,0.123,0.079,���k��,5.0,��
2022/01/19,08:50,0.159,0.146,0.228,0.219,0.221,0.124,0.079,���k��,5.9,��
2022/01/19,09:00,0.158,0.146,0.227,0.220,0.222,0.125,0.079,�k��,6.6,��
2022/01/19,09:10,0.158,0.145,0.226,0.220,0.223,0.124,0.080,�k��,6.2,��
2022/01/19,09:20,0.157,0.145,0.227,0.219,0.222,0.125,0.079,�k��,6.2,��
2022/01/19,09:30,0.158,0.146,0.227,0.221,0.222,0.124,0.079,�k��,6.0,��
2022/01/19,09:40,0.158,0.146,0.228,0.220,0.223,0.125,0.080,���k��,5.2,��
2022/01/19,09:50,0.158,0.145,0.227,0.219,0.223,0.125,0.079,�k��,5.4,��
2022/01/19,10:00,0.158,0.146,0.227,0.220,0.222,0.125,0.080,�k��,4.7,��
2022/01/19,10:10,0.158,0.146,0.227,0.219,0.222,0.125,0.079,���k��,5.2,��
2022/01/19,10:20,0.159,0.146,0.227,0.218,0.222,0.126,0.079,���k��,4.3,��
2022/01/19,10:30,0.157,0.144,0.227,0.220,0.223,0.125,0.080,���k��,3.2,��
2022/01/19,10:40,0.158,0.146,0.226,0.219,0.222,0.126,0.079,���k��,2.2,��
2022/01/19,10:50,0.159,0.145,0.228,0.220,0.224,0.126,0.079,��,1.1,��
2022/01/19,11:00,0.158,0.146,0.227,0.220,0.223,0.125,0.079,���k��,1.0,��
2022/01/19,11:10,0.158,0.146,0.228,0.221,0.222,0.125,0.080,��,1.9,��
2022/01/19,11:20,0.159,0.146,0.227,0.221,0.223,0.126,0.079,���쐼,3.7,��
2022/01/19,11:30,0.158,0.146,0.227,0.220,0.222,0.125,0.080,���쐼,4.4,��
2022/01/19,11:40,0.159,0.145,0.227,0.220,0.223,0.126,0.080,��,4.0,��
2022/01/19,11:50,0.158,0.145,0.227,0.221,0.223,0.126,0.080,���k��,3.3,��
2022/01/19,12:00,0.159,0.146,0.227,0.220,0.222,0.125,0.079,���k��,4.0,��
2022/01/19,12:10,0.158,0.146,0.227,0.220,0.223,0.126,0.079,���k��,3.0,��
2022/01/19,12:20,0.158,0.146,0.228,0.221,0.224,0.125,0.079,���k��,3.5,��
2022/01/19,12:30,0.158,0.145,0.226,0.220,0.223,0.126,0.079,���k��,4.6,��
2022/01/19,12:40,0.157,0.146,0.228,0.221,0.224,0.126,0.080,�k��,4.6,��
2022/01/19,12:50,0.158,0.145,0.228,0.221,0.223,0.125,0.079,�k��,6.0,��
2022/01/19,13:00,0.158,0.145,0.226,0.220,0.223,0.126,0.080,�k��,5.2,��
2022/01/19,13:10,0.158,0.145,0.228,0.221,0.224,0.126,0.080,���k��,3.0,��
2022/01/19,13:20,0.159,0.146,0.229,0.220,0.223,0.126,0.079,�k��,2.2,��
2022/01/19,13:30,0.158,0.145,0.228,0.222,0.224,0.124,0.079,�k��,2.5,��
2022/01/19,13:40,0.158,0.146,0.228,0.220,0.224,0.125,0.080,�k�k��,5.0,��
2022/01/19,13:50,0.158,0.146,0.229,0.221,0.223,0.126,0.079,�k��,5.0,��
2022/01/19,14:00,0.158,0.146,0.228,0.221,0.224,0.126,0.079,�k��,3.3,��
2022/01/19,14:10,0.158,0.145,0.228,0.220,0.222,0.125,0.079,�k��,5.2,��
2022/01/19,14:20,0.159,0.147,0.228,0.219,0.224,0.126,0.079,�k��,3.2,��
2022/01/19,14:30,0.158,0.145,0.229,0.222,0.223,0.125,0.080,�k��,5.0,��
2022/01/19,14:40,0.158,0.146,0.228,0.220,0.223,0.125,0.080,�k�k��,3.8,��
2022/01/19,14:50,0.159,0.145,0.228,0.221,0.225,0.126,0.080,�k�k��,4.1,��
2022/01/19,15:00,0.159,0.146,0.228,0.222,0.223,0.126,0.079,�k��,3.3,��
2022/01/19,15:10,0.158,0.146,0.228,0.221,0.224,0.126,0.080,���k��,4.6,��
2022/01/19,15:20,0.159,0.146,0.229,0.223,0.224,0.126,0.080,�k��,4.4,��
2022/01/19,15:30,0.159,0.145,0.229,0.222,0.223,0.125,0.080,�k��,5.5,��
2022/01/19,15:40,0.159,0.146,0.229,0.222,0.224,0.125,0.080,�k��,4.1,��
2022/01/19,15:50,0.159,0.146,0.229,0.221,0.225,0.125,0.081,���k��,4.7,��
2022/01/19,16:00,0.159,0.146,0.229,0.220,0.224,0.126,0.079,�k��,4.7,��
2022/01/19,16:10,0.160,0.146,0.228,0.221,0.223,0.126,0.079,�k�k��,2.4,��
2022/01/19,16:20,0.158,0.147,0.229,0.222,0.222,0.127,0.081,�k��,1.4,��
2022/01/19,16:30,0.159,0.148,0.228,0.222,0.224,0.126,0.080,�k��,3.0,��
2022/01/19,16:40,0.159,0.146,0.229,0.222,0.224,0.126,0.079,�k��,4.9,��
2022/01/19,16:50,0.159,0.146,0.229,0.222,0.224,0.126,0.080,�k��,4.4,��
2022/01/19,17:00,0.159,0.146,0.228,0.221,0.223,0.127,0.080,�k��,4.3,��
2022/01/19,17:10,0.158,0.147,0.228,0.221,0.224,0.126,0.080,���k��,4.3,��
2022/01/19,17:20,0.159,0.147,0.229,0.221,0.224,0.126,0.079,���k��,3.8,��
2022/01/19,17:30,0.159,0.145,0.229,0.221,0.223,0.125,0.079,���k��,3.5,��
2022/01/19,17:40,0.159,0.145,0.228,0.222,0.224,0.126,0.080,��,4.6,��
2022/01/19,17:50,0.159,0.147,0.229,0.221,0.225,0.126,0.080,��,3.5,��
2022/01/19,18:00,0.159,0.145,0.229,0.221,0.222,0.125,0.080,��,2.5,��
2022/01/19,18:10,0.160,0.146,0.229,0.220,0.224,0.126,0.081,��,1.9,��
2022/01/19,18:20,0.159,0.147,0.229,0.221,0.225,0.126,0.080,���k��,1.6,��
2022/01/19,18:30,0.159,0.147,0.229,0.221,0.223,0.126,0.080,���쐼,1.6,��
2022/01/19,18:40,0.159,0.145,0.230,0.219,0.224,0.126,0.080,��,1.1,��
2022/01/19,18:50,0.160,0.146,0.229,0.220,0.224,0.126,0.079,���k��,1.3,��
2022/01/19,19:00,0.159,0.147,0.229,0.222,0.224,0.126,0.080,��,1.6,��
2022/01/19,19:10,0.158,0.145,0.230,0.222,0.223,0.126,0.080,���k��,0.5,��
2022/01/19,19:20,0.158,0.147,0.228,0.221,0.223,0.127,0.080,��,4.1,��
2022/01/19,19:30,0.159,0.145,0.229,0.222,0.225,0.126,0.080,��,6.9,��
2022/01/19,19:40,0.159,0.147,0.229,0.221,0.225,0.126,0.080,��,6.5,��
2022/01/19,19:50,0.158,0.147,0.230,0.222,0.224,0.126,0.080,���쐼,5.5,��
2022/01/19,20:00,0.158,0.147,0.229,0.222,0.224,0.127,0.080,���쐼,4.9,��
2022/01/19,20:10,0.158,0.146,0.229,0.222,0.224,0.126,0.079,���쐼,5.8,��
2022/01/19,20:20,0.160,0.148,0.229,0.221,0.224,0.126,0.080,��,5.8,��
2022/01/19,20:30,0.159,0.146,0.229,0.221,0.223,0.126,0.080,��,6.1,��
2022/01/19,20:40,0.160,0.147,0.228,0.222,0.225,0.127,0.080,��,6.2,��
2022/01/19,20:50,0.158,0.146,0.230,0.222,0.225,0.126,0.080,��,8.5,��
2022/01/19,21:00,0.159,0.147,0.229,0.221,0.224,0.126,0.081,��,8.7,��
2022/01/19,21:10,0.159,0.147,0.229,0.222,0.224,0.127,0.080,��,11.4,��
2022/01/19,21:20,0.159,0.146,0.229,0.221,0.223,0.126,0.080,��,10.6,��
2022/01/19,21:30,0.160,0.147,0.230,0.222,0.223,0.127,0.080,��,10.4,��
2022/01/19,21:40,0.159,0.146,0.228,0.222,0.225,0.127,0.081,��,7.3,�L
2022/01/19,21:50,0.160,0.147,0.230,0.221,0.225,0.126,0.081,��,7.8,��
2022/01/19,22:00,0.159,0.147,0.230,0.222,0.225,0.127,0.080,��,8.0,��
2022/01/19,22:10,0.158,0.147,0.229,0.222,0.225,0.127,0.081,��,7.0,��
2022/01/19,22:20,0.159,0.147,0.230,0.222,0.225,0.127,0.080,���k��,8.8,��
2022/01/19,22:30,0.159,0.148,0.230,0.222,0.224,0.127,0.081,���k��,8.4,��
2022/01/19,22:40,0.160,0.146,0.230,0.222,0.224,0.127,0.081,���k��,6.5,��
2022/01/19,22:50,0.159,0.147,0.228,0.222,0.223,0.127,0.080,���k��,7.5,��
2022/01/19,23:00,0.159,0.147,0.229,0.223,0.224,0.127,0.081,���k��,6.7,��
2022/01/19,23:10,0.159,0.146,0.229,0.221,0.223,0.127,0.080,���k��,8.0,��
2022/01/19,23:20,0.160,0.147,0.229,0.222,0.224,0.127,0.080,���k��,7.0,��
2022/01/19,23:30,0.159,0.147,0.230,0.222,0.224,0.126,0.080,���k��,5.4,��
2022/01/19,23:40,0.158,0.146,0.229,0.222,0.224,0.126,0.080,���k��,5.2,��
2022/01/19,23:50,0.160,0.145,0.229,0.222,0.224,0.126,0.080,���k��,4.8,��
